SKYSAT-C3

Last updated on Thu Jul 03 2025 00:02:30 GMT+0000 (Coordinated Universal Time)

1 41774U 16058E 25183.57804256 .00009879 00000+0 26429-3 0 9997 2 41774 96.9515 225.4568 0002679 97.3769 262.7782 15.38225574492132
UTC large
Height (km)
Speed (km/s)
/
Latitude / Longitude
Inclination (degrees)
Orbital Period (minutes)
Azimuth
Elevation
Range (km)
Doppler Factor

Next 0 passes for location: London (51.5072 / 0.1276)

Sorry there are no passes over London.